Regional Weather Roundup
Issued by NWS Glasgow, MT

Home | Current Version | Previous Version | Text Only | Print | Product List | Glossary On
Versions: 1 2 3 4 5 6 7 8 9 10 11 12 13 14 15 16 17 18 19 20 21 22 23 24 25 26 27 28 29 30 31 32 33 34 35 36 37 38 39 40 41 42 43 44 45 46 47 48 49 50
000
ASUS45 KGGW 291715
RWRGGW
HOURLY REGIONAL WEATHER ROUNDUP FOR NORTHEAST MONTANA
NATIONAL WEATHER SERVICE GLASGOW MONTANA
1100 AM MDT MON AUG 29 2016

NOTE: "FAIR" INDICATES FEW OR NO CLOUDS BELOW 12,000 FEET WITH NO
SIGNIFICANT WEATHER AND/OR OBSTRUCTIONS TO VISISBILITY.

NORTHEAST MONTANA


CITY           SKY/WX    TMP DP  RH WIND       PRES   REMARKS
GLASGOW        SUNNY     65  44  46 SE14G20   30.30F
PLENTYWOOD       N/A     64  42  44 E3          N/A
WOLF POINT     SUNNY     67  45  45 E12       30.31F
JORDAN           N/A     70  47  43 E10G16    30.29F
WINNETT          N/A     70  47  43 SE3G12      N/A
SIDNEY         SUNNY     64  47  53 NE8       30.31
GLENDIVE       SUNNY     67  46  47 E8        30.31S
SCOBEY           N/A     64  42  44 CALM      30.29S

FORT PECK REPORTS


CITY           SKY/WX    TMP DP  RH WIND       PRES   REMARKS
FORT PECK        N/A     68  46  45 E12         N/A
THE PINES        N/A     68  46  45 NE5         N/A

SOUTHEAST MONTANA


CITY           SKY/WX    TMP DP  RH WIND       PRES   REMARKS
BILLINGS       MOSUNNY   71  50  47 CALM      30.31S
MILES CITY     SUNNY     73  48  41 VRB6      30.29R
BAKER          SUNNY     73  47  39 E13       30.32R
LIVINGSTON     SUNNY     71  45  39 VRB6      30.33F

CENTRAL MONTANA


CITY           SKY/WX    TMP DP  RH WIND       PRES   REMARKS
HAVRE          SUNNY     70  48  45 E10       30.23S
LEWISTOWN      SUNNY     74  51  44 E12       30.28S
GREAT FALLS    SUNNY     68  46  45 VRB3      30.24F
CUT BANK       SUNNY     62  45  53 CALM      30.24F
HELENA         SUNNY     67  43  41 VRB3      30.27F
BUTTE          SUNNY     67  36  31 CALM      30.34F HAZE
BOZEMAN        SUNNY     71  42  35 NW5       30.30F

WESTERN MONTANA


CITY           SKY/WX    TMP DP  RH WIND       PRES   REMARKS
MISSOULA       SUNNY     67  39  35 CALM      30.21F
KALISPELL      NOT AVBL

NORTH DAKOTA


CITY           SKY/WX    TMP DP  RH WIND       PRES   REMARKS
WILLISTON      SUNNY     66  43  43 N9        30.32S
DICKINSON      SUNNY     69  46  43 NE9       30.29F
MINOT          SUNNY     68  47  46 N7        30.28R
BISMARCK       CLOUDY    71  51  49 N9        30.28R

SOUTHERN SASKATCHEWAN


CITY           SKY/WX    TMP DP  RH WIND       PRES   REMARKS
REGINA         MOSUNNY   57  41  54 N3        30.32S
MOOSE JAW      MOSUNNY   59  43  55 CALM      30.33R
ESTEVAN        MOSUNNY   64  45  48 N7        30.31S
SWIFT CURRENT  MOSUNNY   59  43  55 SE6       30.30S




USA.gov is the U.S. government's official web portal to all federal, state and local government web resources and services.